www.pogodaiklimat.ru

Погода и климат >> Архив погоды >> Россия >> Самарская область >> Аглос


ПОГОДА в Аглосе

  • Прогноз погоды в Аглосе
  • Монитор погоды в Аглосе

АРХИВ ПОГОДЫ в Аглосе

Время (UTC), дата Ветер
(напр.,м/с)
 
Видим.   Явления Облачность Т
(С)
Тd
(С)
f
(%)
Тe
(С)
Тes
(С)
Комфортность P
(гПа)
Po
(гПа)
Тmin
(С)
Tmax
(С)
R
(мм)
R24
(мм)
S
(см)
12 13.05 З 2 20 км гроза, ливневой дождь 8/8 600 м
[Cb cap]
+29.9 +7.6 25 +29 +31 жарко 1016.0 1007.7
15 13.05 С 2
{17}
50 км гроза без осадков {ливн. осадки} 8/4 600 м
[Cb cap Ac As]
+21.8 +11.0 50 +24 +24 комфорт 1016.3 1007.8 +31.9 17
18 13.05 штиль 0 50 км {гроза, ливн. осадки} 10/4 1000 м
[Sc diur, vesp Ac cuf]
+17.2 +13.2 77 +17 +17 1016.6 1008.0
21 13.05 штиль 0 50 км ясно +14.9 +12.5 86 +15 +15 1016.0 1007.3
00 14.05 ЮЗ 1 50 км ясно +12.9 +12.5 97 +13 +13 1015.2 1006.5
03 14.05 С 1 20 км 1/0
[Ac trans]
+16.3 +14.5 89 +17 +20 1015.1 1006.5 +12.6 0.3
06 14.05 СВ 2 20 км 1/0
[Ac cast]
+24.2 +14.0 53 +27 +37 жарко 1014.4 1006.0
09 14.05 СВ 3 20 км 5/0
[Ac cast Cc]
+28.7 +11.8 35 +30 +39 жарко 1013.3 1005.0
12 14.05 С 2 20 км 4/3 1000 м
[Cb cap Ci ing]
+29.6 +11.0 32 +30 +36 жарко 1011.7 1003.4
15 14.05 С 3
{13}
20 км {гроза} 10/6 1000 м
[Cb cap Ac cast Ci ing]
+23.1 +11.5 48 +25 +26 комфорт 1012.2 1003.8 +29.8
18 14.05 В 1
{19}
50 км {гроза, ливн. осадки} 8/4 600 м
[Cb cap Ac As]
+19.6 +12.1 62 +22 +22 комфорт 1011.9 1003.4
21 14.05 С 1 50 км 9/3 600 м
[Cb cap Ac As]
+17.8 +14.6 82 +19 +19 1012.2 1003.7
00 15.05 штиль 0 50 км 3/0
[Ac trans]
+16.4 +13.4 82 +16 +16 1012.3 1003.7
03 15.05 штиль 0 20 км 4/0
[Ac As Ci sp]
+19.3 +15.1 77 +21 +23 комфорт 1012.7 1004.1 +14.9 3
06 15.05 СВ 2 20 км 9/0
[Ac cast]
+23.3 +13.8 55 +27 +31 душно 1013.5 1005.0
09 15.05 СВ 3 20 км 3/1 1000 м
[Cb calv Ac trans Ci fib]
+26.9 +13.1 43 +29 +39 жарко 1013.5 1005.2
12 15.05 В 2 20 км 3/3 1000 м
[Cb calv]
+27.9 +11.4 36 +29 +35 жарко 1013.2 1004.9
15 15.05 СВ 2 20 км 10/3 1000 м
[Cb cap Cs]
+24.8 +15.8 57 +28 +29 жарко 1012.9 1004.5 +28.1
18 15.05 штиль 0 50 км 8/3 600 м
[Sc diur, vesp Ac trans]
+22.5 +14.3 60 +26 +26 жарко 1014.3 1005.8
21 15.05 СВ 1 50 км 5/0
[Ac trans]
+18.7 +11.4 63 +20 +20 1014.3 1005.8
00 16.05 Ю 1 50 км 8/5 600 м
[Sc diur, vesp Ac trans]
+17.7 +13.5 76 +19 +19 1014.1 1005.5
03 16.05 ЮВ 4 20 км 9/3 720 м
[Sc diur, vesp Ac trans Ci fib]
+16.9 +11.6 71 +16 +17 1015.3 1006.6 +15.1
06 16.05 ЮВ 3 50 км 3/1 1000 м
[Sc Ci fib]
+18.6 +10.2 58 +19 +27 1015.5 1006.9 +15.0
09 16.05 В 2 50 км 9/8 1000 м
[Sc Ci sp]
+23.0 +13.2 54 +26 +29 жарко 1014.6 1006.2
12 16.05 В 2 50 км гроза без осадков 9/5 600 м
[Cb cap Cs]
+24.1 +14.3 54 +27 +30 жарко 1011.7 1003.3
15 16.05 В 1
{18}
20 км гроза, ливневой дождь 9/8 600 м
[Cb calv Ci ing]
+16.7 +16.8 100 +18 +18 1012.2 1003.6 +25.6 28
18 16.05 СЗ 1 20 км {гроза, ливн. осадки} 10/6 600 м
[Cb cap Ac trans]
+15.9 +16.1 100 +17 +17 1013.7 1005.1
21 16.05 С 2 50 км 10/8 660 м
[Sc Ac trans]
+15.9 +15.3 96 +16 +16 1014.0 1005.4
00 17.05 С 4 50 км 10/10 700 м
[Sc]
+12.8 +11.6 92 +11 +11 1015.0 1006.2
03 17.05 С 4
{10}
50 км 8/5 600 м
[Sc Ac trans Ci fib]
+10.7 +5.1 68 +8 +9 1017.2 1008.3 +10.5 0.0
06 17.05 С 6-10
{12}
50 км 8/1 1000 м
[Cu hum Ci sp]
+12.8 +1.4 46 +11 +14 1018.0 1009.2
09 17.05 СВ 6-11
{13}
50 км 3/0
[Ci sp]
+14.4 +0.7 39 +13 +19 1018.0 1009.3
12 17.05 С 5-10
{11}
50 км 3/3 1000 м
[Cu med, cong]
+15.2 +1.0 38 +14 +17 1017.7 1008.9
15 17.05 С 3
{10}
50 км 3/1 1000 м
[Cu med, cong Ci sp]
+14.3 +0.7 39 +14 +14 1017.5 1008.7 +15.4
18 17.05 СЗ 1 50 км 1/1 1000 м
[Cu hum]
+8.7 +3.4 69 +8 +8 1017.8 1008.9
21 17.05 СЗ 2 50 км 1/1 1000 м
[Cu hum]
+7.4 +3.1 74 +5 +5 1017.0 1008.0
00 18.05 З 1 50 км ясно +6.7 +3.4 79 +6 +6 1016.6 1007.6
03 18.05 З 2 50 км ясно +10.7 +4.9 67 +10 +12 1015.8 1007.0 +4.8
06 18.05 З 4 50 км 1/0
[Ci fib]
+15.8 +3.0 42 +15 +23 1013.9 1005.2
09 18.05 -12
{12}
20 км н/о +17.9 +2.2 35 +18 +18 1011.2 1002.6
12 18.05 СЗ 4
{12}
50 км 9/9 840 м
[Sc diur, vesp]
+18.2 +2.8 36 +18 +19 1009.7 1001.1
15 18.05 С 2 50 км 3/3 1000 м
[Sc diur, vesp Ci fib]
+17.0 +3.2 40 +17 +18 1009.3 1000.7 +19.1
18 18.05 С 2 50 км 3/1 1000 м
[Sc diur, vesp Ci fib]
+11.4 +1.9 52 +11 +11 1011.0 1002.2
21 18.05 СВ 2 50 км 10/0
[Ac As Ci sp]
+8.9 +0.4 55 +8 +8 1012.2 1003.3
00 19.05 штиль 0 50 км 3/3 600 м
[Sc diur, vesp]
+6.6 -0.3 61 +6 +6 1011.5 1002.6
03 19.05 ЮЗ 2 50 км 6/6 600 м
[Sc diur, vesp]
+8.7 -0.6 52 +7 +8 1010.6 1001.7 +4.8
06 19.05 З 3 50 км 10/8 600 м
[Cu Sc Ac trans]
+12.2 +3.4 55 +11 +12 1010.0 1001.2
09 19.05 СЗ 4-10
{11}
50 км 5/5 600 м
[Cu Sc]
+13.1 -0.2 40 +12 +17 1010.8 1002.1
12 19.05 С 5
{10}
50 км 4/4 600 м
[Cu Sc]
+13.4 -1.9 35 +12 +15 1011.0 1002.3
15 19.05 С 4
{10}
50 км 3/3 1000 м
[Sc diur, vesp]
+11.0 -2.9 38 +9 +10 1012.4 1003.6 +14.0
18 19.05 С 3
{10}
50 км 1/1 600 м
[Sc diur, vesp]
+7.7 -2.0 50 +5 +5 1014.4 1005.4
21 19.05 С 1 50 км ясно +5.3 -1.5 61 +5 +5 1015.3 1006.3
00 20.05 СЗ 1 50 км ясно +2.9 -1.2 74 +2 +2 1016.4 1007.3
03 20.05 СЗ 2 50 км 3/0
[Ac trans]
+7.1 +0.2 61 +5 +7 1017.2 1008.2 +2.1
06 20.05 С 3 50 км 9/9 600 м
[Cb cap]
+9.7 +0.1 51 +8 +9 1017.4 1008.5
09 20.05 СЗ 3 50 км 10/10 840 м
[Cb cap]
+11.3 +0.3 47 +10 +10 1016.9 1008.1

 

Местоположение метеостанции Аглос (Самарская область, Россия): широта 52.97 долгота 50.10 высота над уровнем моря 72 м.

В архиве по умолчанию представлена погода в Аглосе за последнюю неделю. Архивные данные за месяц целиком и за предыдущие месяцы, начиная с января 2011 года, Вы можете получить, выбрав интересующий диапазон дат из раскрывающегося списка и нажав кнопку "Ввод!".


*Определитесь, кто Вы:
робот инопланетянин человек

Внимание! Время в таблицах - всемирное. Для получения местного времени необходимо прибавить поправку, которая равна 4 ч.

Смотрите также архив погоды в соседних городах и на ближайших метеорологических станциях:

Погода в Чапаевске (Самарская область, Россия) (25 км)
Погода в Самаре АМС (Самарская область, Россия) (26 км)
Погода в Самаре-Центр (Самарская область, Россия) (26 км)
Погода в Самаре (Самарская область, Россия) (32 км)
Погода в Безенчуке (Самарская область, Россия) (45 км)
Погода в Красносамарском (Самарская область, Россия) (49 км)
Погода в Курумоче (Самарская область, Россия) (59 км)
Погода в Тольятти (дамба) (Самарская область, Россия) (70 км)
Погода в Большая Глушица (Самарская область, Россия) (70 км)
Погода в Богатом (Самарская область, Россия) (79 км)

Пояснения к столбцам:

Ветер - указаны скорость ветра в м/с - средняя за 10 мин, порывы в срок и между сроками (в фигурных скобках) и направление, откуда дует ветер: С - северный, СВ - северо-восточный, В - восточный, ЮВ - юго-восточный, Ю - южный, ЮЗ - юго-западный, З - западный, СЗ - северо-западный.
Видимость - горизонтальная дальность видимости в метрах или километрах. При видимости от 1 до 10 км при отсутствии осадков обычно наблюдается дымка, при ухудшении видимости до 1 км и менее - туман. В сухую погоду видимость может ухудшаться дымом, пылью или мглою.
Явления - указаны атмосферные явления, наблюдавшиеся в срок или в последний час перед сроком; фигурными скобками обозначены явления, наблюдавшиеся между сроками (за 1-3 часа до срока); квадратными скобками обозначены град или гололедные отложения с указанием их диаметра в мм.
Облачность - указаны через наклонную черту общая и нижняя облачность в баллах и высота нижней границы облаков в метрах; квадратными скобками обозначены формы облаков: Ci - перистые, Cs - перисто-слоистые, Cc - перисто-кучевые, Ac - высококучевые, As - высокослоистые, Sc - слоисто-кучевые, Ns - слоисто-дождевые, Cu - кучевые, Cb - кучево-дождевые. Подробнее классификацию облаков см. в Атласе облаков (PDF).
T - Температура воздуха - температура, измеренная на высоте 2 м над землей.
Td - Температура точки росы - температура, при понижении до которой содержащийся в воздухе водяной пар достигнет насыщения.
f - Относительная влажность воздуха - влажноcть воздуха, измеренная на высоте 2 м над землей.
Te - Эффективная температура - температура, которую ощущает одетый по сезону человек в тени. Характеристика душности погоды. При расчете учитывается влияние влажности воздуха и скорости ветра на теплоощущения человека.
Tes - Эффективная температура на солнце - температура, которую ощущает человек, с поправкой на солнечный нагрев. Характеристика знойности погоды. Зависит от высоты солнца над горизонтом, облачности и скорости ветра. Ночью, в пасмурную погоду, а также при ветре 12 м/с и более поправка равна нулю.
P - Атмосферное давление - приведенное к уровню моря атмосферное давление.
Po - Атмосферное давление - измеренное на уровне метеостанции атмосферное давление.
Tmin - Минимальная температура - минимум температуры воздуха на высоте 2 м над землей.
Tmax - Максимальная температура - максимум температуры воздуха на высоте 2 м над землей.
R - Количество осадков - Количество выпавших осадков за период времени, мм. При наведении курсора мыши на число - период времени, за который выпало указанное количество осадков.
R24 - Количество осадков - Количество выпавших осадков за 24 часа, мм.
S - Снежный покров - Высота снежного покрова, см. При наведении курсора мыши на число - состояние снежного покрова и степень покрытия местности в баллах.